Weather reports worldwide

Advertisment
Grenoble/St.Geoirs, France (7486): temperature & dewpoint: 16.01.2020 00:00:00 - 22.01.2020 00:00:00 (CET)Grenoble/St.Geoirs, France (7486): temperature 5cm: 16.01.2020 00:00:00 - 22.01.2020 00:00:00 (CET)Grenoble/St.Geoirs, France (7486): temperature -20cm & temperature -100cm: 16.01.2020 00:00:00 - 22.01.2020 00:00:00 (CET)Grenoble/St.Geoirs, France (7486): wind speed & gusts: 16.01.2020 00:00:00 - 22.01.2020 00:00:00 (CET)Grenoble/St.Geoirs, France (7486): wind direction: 16.01.2020 00:00:00 - 22.01.2020 00:00:00 (CET)Grenoble/St.Geoirs, France (7486): reduced air pressure: 16.01.2020 00:00:00 - 22.01.2020 00:00:00 (CET)Grenoble/St.Geoirs, France (7486): visibility: 16.01.2020 00:00:00 - 22.01.2020 00:00:00 (CET)Grenoble/St.Geoirs, France (7486): sunshine duration: 16.01.2020 00:00:00 - 22.01.2020 00:00:00 (CET)Grenoble/St.Geoirs, France (7486): precipitation: 16.01.2020 00:00:00 - 22.01.2020 00:00:00 (CET)
Date & Time tt [°C] td [°C] tt 5cm [°C] tt -20cm [°C] tt -100cm [°C] ff [km/h] ff [kn] fx [km/h] fx [kn] dd ppp [hPa] vv [km] sd [min] rr [mm]
22.01.2020 00:00:00 -1,7 -2,8 -3,5 4,0 7,4 9 5 11 6 ESE 1037,3 3,7 0 0,0
21.01.2020 23:00:00 -2,0 -3,1 -4,4 4,0 7,4 5 3 8 5 E 1037,6 4,1 0 0,0
21.01.2020 22:00:00 -0,9 -1,9 -4,1 4,0 7,4 4 2 9 5 E 1037,8 4,9 0 0,0
21.01.2020 21:00:00 -0,9 -2,2 -3,3 4,0 7,4 3 2 10 5 ENE 1037,6 6 0 0,0
21.01.2020 20:00:00 -0,2 -2,9 -3,6 4,0 7,4 5 3 11 6 NE 1037,8 7 0 0,0
21.01.2020 19:00:00 0,9 -2,3 -1,6 4,0 7,4 8 4 16 9 NNE 1037,1 10 0 0,0
21.01.2020 18:00:00 2,0 -1,8 0,7 3,9 7,4 10 5 23 12 NNE 1036,5 10 0 0,0
21.01.2020 17:00:00 3,3 -1,1 2,8 3,8 7,4 11 6 18 10 N 1036,1 11 0 0,0
21.01.2020 16:00:00 3,8 -0,8 5,5 3,8 7,4 2 1 5 3 NNW 1036,7 12 0 0,0
21.01.2020 15:00:00 3,7 -1,3 4,9 3,8 7,5 4 2 10 6 NW 1037,4 11 0 0,0
21.01.2020 14:00:00 3,5 -1,3 4,7 3,8 7,4 8 4 12 7 WSW 1038,3 12 9 0,0
21.01.2020 13:00:00 5,0 -1,3 7,8 3,8 7,4 5 3 15 8 W 1038,8 13 56 0,0
21.01.2020 12:00:00 4,5 -1,3 4,4 3,8 7,4 3 2 11 6 WSW 1039,6 13 38 0,0
21.01.2020 11:00:00 2,7 -1,8 2,3 3,8 7,5 9 5 13 7 ENE 1040,1 11 51 0,0
21.01.2020 10:00:00 0,4 -2,3 -2,1 3,9 7,5 4 2 11 6 E 1040,3 10 7 0,0
21.01.2020 09:00:00 -1,8 -3,8 -5,6 3,8 7,4 11 6 15 8 E 1040,3 11 0 0,0
21.01.2020 08:00:00 -3,2 -4,8 -6,2 3,9 7,5 10 6 14 8 E 1040,2 11 0 0,0
21.01.2020 07:00:00 -1,8 -3,1 -5,8 3,9 7,5 3 2 7 4 ENE 1039,5 9 0 0,0
21.01.2020 06:00:00 -1,5 -2,5 -4,0 3,9 7,5 3 1 6 3 NNE 1039,4 8 0 0,0
21.01.2020 05:00:00 -1,2 -2,2 -2,7 4,0 7,5 3 1 5 3 WSW 1039,5 8 0 0,0
21.01.2020 04:00:00 -1,2 -2,3 -2,5 4,0 7,5 3 1 8 4 SE 1039,6 7 0 0,0
21.01.2020 03:00:00 -0,9 -2,2 -3,2 4,0 7,5 0 0 4 2 N 1039,9 8 0 0,0
21.01.2020 02:00:00 -1,5 -2,6 -3,9 4,0 7,5 4 2 9 5 ESE 1040,2 6 0 0,0
21.01.2020 01:00:00 -1,2 -2,5 -4,1 4,0 7,5 2 1 13 7 SE 1040,3 8 0 0,0
21.01.2020 00:00:00 -1,1 -2,7 -4,4 4,1 7,6 8 4 14 7 SE 1040,3 8 0 0,0
20.01.2020 23:00:00 -1,0 -2,0 -3,9 4,1 7,6 4 2 5 3 E 1039,9 6 0 0,0
20.01.2020 22:00:00 -0,7 -2,4 -1,9 4,1 7,6 6 3 9 5 S 1039,5 7 0 0,0
20.01.2020 21:00:00 -0,1 -2,8 -2,9 4,1 7,6 8 4 14 8 E 1039,5 13 0 0,0
20.01.2020 20:00:00 -0,5 -2,7 -4,0 4,1 7,6 4 2 11 6 E 1039,5 11 0 0,0
20.01.2020 19:00:00 -1,7 -4,2 -4,9 4,1 7,6 9 5 13 7 E 1039,7 15 0 0,0
20.01.2020 18:00:00 1,0 -3,3 -3,0 4,1 7,6 9 5 13 7 NE 1039,3 19 0 0,0
20.01.2020 17:00:00 2,1 -2,6 1,4 4,1 7,6 12 6 17 9 N 1038,9 24 34 0,0
20.01.2020 16:00:00 3,3 -3,1 4,7 4,1 7,6 11 6 18 10 NW 1038,6 28 48 0,0
20.01.2020 15:00:00 3,3 -2,0 5,0 4,1 7,6 8 4 21 12 NW 1038,4 28 31 0,0
20.01.2020 14:00:00 2,9 -2,8 3,1 4,2 7,6 12 7 19 11 N 1038,9 15 7 0,0
20.01.2020 13:00:00 1,7 -2,6 3,2 4,2 7,6 10 5 27 15 N 1039,1 15 0 0,0
20.01.2020 12:00:00 1,7 -1,0 2,2 4,3 7,6 0 0 8 4 N 1039,4 13 31 0,0
20.01.2020 11:00:00 -0,5 -1,3 -2,3 4,4 7,6 6 3 10 5 W 1039,9 7 14 0,0
20.01.2020 10:00:00 -2,8 -3,2 -7,7 4,4 7,6 4 2 7 4 SSW 1040,0 9 0 0,0
20.01.2020 09:00:00 -5,1 -5,8 -9,8 4,4 7,6 5 3 10 6 SSE 1040,1 8 0 0,0
20.01.2020 08:00:00 -5,2 -6,0 -10,2 4,5 7,6 3 2 6 3 SSE 1039,4 8 0 0,0
20.01.2020 07:00:00 -4,0 -4,4 -9,9 4,6 7,6 2 1 7 4 S 1038,5 11 0 0,0
20.01.2020 06:00:00 -4,9 -5,7 -9,9 4,6 7,7 4 2 8 4 S 1038,4 8 0 0,0
20.01.2020 05:00:00 -4,5 -5,2 -9,4 4,7 7,7 3 2 9 5 S 1038,0 7 0 0,0
20.01.2020 04:00:00 -3,5 -4,0 -9,2 4,7 7,7 4 2 6 4 S 1038,0 8 0 0,0
20.01.2020 03:00:00 -2,9 -3,7 -8,4 4,7 7,7 2 1 5 3 NW 1037,9 12 0 0,0
20.01.2020 02:00:00 -1,5 -2,8 -5,9 4,8 7,7 3 1 9 5 ESE 1037,5 20 0 0,0
20.01.2020 01:00:00 -1,1 -2,7 -4,6 4,8 7,7 5 3 24 13 NW 1037,0 20 0 0,0
20.01.2020 00:00:00 0,1 -2,0 -2,0 4,9 7,7 17 9 26 14 NNW 1036,4 22 0 0,0
19.01.2020 23:00:00 -0,2 -2,6 -2,4 4,9 7,7 11 6 19 11 NW 1036,1 35 0 0,0
19.01.2020 22:00:00 0,6 -3,1 -1,6 4,9 7,7 11 6 21 12 N 1035,9 44 0 0,0
19.01.2020 21:00:00 1,0 -3,5 -0,5 4,9 7,7 11 6 29 16 N 1035,5 45 0 0,0
19.01.2020 20:00:00 1,4 -2,7 0,3 4,9 7,7 14 8 41 22 N 1034,5 43 0 0,0
19.01.2020 19:00:00 1,8 -2,2 0,3 4,9 7,7 15 8 27 15 N 1034,0 41 0 0,0
19.01.2020 18:00:00 2,6 -1,6 1,4 4,8 7,7 16 8 35 19 N 1033,3 37 0 0,0
19.01.2020 17:00:00 3,8 -1,0 2,8 4,8 7,7 19 10 35 19 N 1032,6 34 27 0,0
19.01.2020 16:00:00 4,5 -0,1 5,1 4,8 7,7 15 8 32 18 N 1032,1 46 40 0,0
19.01.2020 15:00:00 4,1 -0,1 4,8 4,8 7,7 20 11 32 17 N 1032,0 35 21 0,0
19.01.2020 14:00:00 3,4 -0,6 5,8 4,8 7,7 8 5 26 14 N 1032,1 44 49 0,0
19.01.2020 13:00:00 2,1 -1,0 3,7 4,8 7,7 4 2 21 11 N 1032,4 28 5 0,0
19.01.2020 12:00:00 1,4 -0,8 3,7 4,8 7,7 13 7 21 11 NNW 1032,4 31 33 0,0
19.01.2020 11:00:00 1,1 -0,8 1,7 4,9 7,7 11 6 17 9 NNW 1032,0 20 33 0,0
19.01.2020 10:00:00 0,2 -1,4 -1,0 4,9 7,7 7 4 16 9 NW 1031,4 22 8 0,0
19.01.2020 09:00:00 -0,6 -1,9 -1,7 5,0 7,7 9 5 22 12 NW 1031,1 34 0 0,0
19.01.2020 08:00:00 -0,8 -2,1 -1,8 5,0 7,7 13 7 23 12 NNW 1030,6 27 0 0,0
19.01.2020 07:00:00 -0,8 -1,9 -2,1 5,1 7,7 14 7 24 13 NNW 1030,1 25 0 0,0
19.01.2020 06:00:00 -1,0 -1,8 -5,3 5,2 7,7 13 7 15 8 NNW 1029,6 23 0 0,0
19.01.2020 05:00:00 -1,3 -1,9 -4,9 5,2 7,7 5 3 10 5 W 1029,3 19 0 0,0
19.01.2020 04:00:00 -1,2 -2,3 -4,2 5,3 7,7 5 3 20 11 S 1029,2 15 0 0,0
19.01.2020 03:00:00 -0,7 -1,4 -5,7 5,4 7,7 11 6 14 8 N 1028,9 15 0 0,0
19.01.2020 02:00:00 -2,2 -2,9 -6,6 5,4 7,7 3 1 9 5 NE 1029,0 12 0 0,0
19.01.2020 01:00:00 -1,6 -2,7 -6,2 5,5 7,7 3 1 9 5 S 1028,6 14 0 0,0
19.01.2020 00:00:00 -0,2 -1,6 -4,1 5,5 7,7 8 4 16 9 NW 1027,9 26 0 0,0
18.01.2020 23:00:00 0,7 -1,9 -1,6 5,6 7,8 13 7 26 14 NNE 1026,8 32 0 0,0
18.01.2020 22:00:00 2,5 -1,1 -2,6 5,6 7,7 16 9 24 13 NE 1026,6 31 0 0,0
18.01.2020 21:00:00 0,7 -1,1 -3,3 5,6 7,7 10 6 17 9 N 1027,6 36 0 0,0
18.01.2020 20:00:00 1,2 -1,0 -2,9 5,6 7,7 0 0 14 7 N 1027,4 26 0 0,0
18.01.2020 19:00:00 2,3 -0,6 -2,9 5,6 7,7 6 3 19 10 N 1027,1 41 0 0,0
18.01.2020 18:00:00 3,2 0,3 -2,8 5,6 7,7 4 2 16 8 N 1027,2 45 0 0,0
18.01.2020 17:00:00 5,0 0,7 3,9 5,5 7,7 11 6 29 15 NNE 1027,0 55 39 0,0
18.01.2020 16:00:00 6,2 0,9 5,8 5,5 7,7 18 10 30 16 N 1027,1 46 38 0,0
18.01.2020 15:00:00 6,8 0,9 8,3 5,4 7,7 15 8 26 14 N 1027,5 45 50 0,0
18.01.2020 14:00:00 7,0 1,7 6,8 5,5 7,8 14 8 24 13 N 1028,2 46 23 0,0
18.01.2020 13:00:00 6,4 1,7 6,5 5,5 7,7 14 7 27 15 NNW 1029,0 38 28 0,0
18.01.2020 12:00:00 5,7 0,6 6,6 5,5 7,7 18 10 26 14 NNW 1030,1 32 41 0,0
18.01.2020 11:00:00 5,0 1,8 4,9 5,6 7,7 4 2 10 5 S 1030,8 33 58 0,0
18.01.2020 10:00:00 2,1 1,2 -0,7 5,6 7,7 5 3 13 7 W 1031,3 17 60 0,0
18.01.2020 09:00:00 0,3 -0,3 -3,8 5,7 7,7 8 4 13 7 NNW 1031,4 10 11 0,0
18.01.2020 08:00:00 1,1 0,7 -2,7 5,7 7,7 6 4 18 10 NNE 1030,8 18 0 0,0
18.01.2020 07:00:00 0,1 -0,2 -3,2 5,8 7,7 5 3 10 5 E 1031,1 20 0 0,0
18.01.2020 06:00:00 -0,4 -1,1 -2,3 5,8 7,8 8 4 12 7 ENE 1031,2 27 0 0,0
18.01.2020 05:00:00 0,4 -0,9 -2,5 5,8 7,7 6 4 11 6 NE 1031,5 35 0 0,0
18.01.2020 04:00:00 3,3 1,0 0,0 5,8 7,8 8 5 24 13 E 1031,0 47 0 0,0
18.01.2020 03:00:00 4,3 1,7 2,9 5,8 7,7 13 7 31 17 N 1030,8 55 0 0,0
18.01.2020 02:00:00 4,8 2,3 1,9 5,9 7,8 23 12 32 17 NW 1030,4 50 0 0,0
18.01.2020 01:00:00 3,1 2,8 -0,1 5,8 7,7 8 5 16 9 SSW 1030,4 0,5 0 0,0
18.01.2020 00:00:00 4,2 3,5 3,2 5,8 7,8 5 3 9 5 SSE 1029,8 14 0 0,0
17.01.2020 23:00:00 4,3 3,7 3,0 5,8 7,7 7 4 18 10 NE 1029,3 45 0 0,0
17.01.2020 22:00:00 5,0 4,6 4,4 5,8 7,8 13 7 17 9 ENE 1028,7 18 0 0,0
17.01.2020 21:00:00 5,0 4,6 4,4 5,7 7,7 6 4 9 5 ENE 1028,1 5 0 0,8
17.01.2020 20:00:00 5,4 4,5 4,7 5,7 7,7 4 2 9 5 S 1027,4 6 0 0,6
17.01.2020 19:00:00 5,6 4,6 4,8 5,7 7,7 6 3 27 14 S 1026,2 15 0 1,4
17.01.2020 18:00:00 6,0 4,6 5,3 5,7 7,7 23 12 40 21 NW 1025,1 5 0 0,8
17.01.2020 17:00:00 6,1 5,2 5,8 5,6 7,7 17 9 25 14 ENE 1023,7 10 0 0,0
17.01.2020 16:00:00 7,1 6,5 6,9 5,6 7,8 15 8 20 11 E 1023,2 6 0 0,2
17.01.2020 15:00:00 7,1 6,5 6,1 5,5 7,7 10 5 28 15 ENE 1023,1 6 0 1,2
17.01.2020 14:00:00 6,5 5,8 6,1 5,5 7,7 16 9 21 12 ENE 1023,0 3,9 0 1,2
17.01.2020 13:00:00 7,2 6,3 7,2 5,5 7,8 13 7 19 11 E 1023,4 5 0 2,2
17.01.2020 12:00:00 7,6 6,2 7,2 5,4 7,7 0 0 10 6 N 1024,5 8 0 0,8
17.01.2020 11:00:00 8,0 5,5 8,0 5,5 7,7 3 2 10 5 E 1024,6 22 0 0,0
17.01.2020 10:00:00 7,3 5,1 5,4 5,5 7,7 9 5 16 9 ENE 1024,4 22 9 0,0
17.01.2020 09:00:00 5,4 4,2 1,7 5,5 7,7 8 4 12 7 E 1025,4 19 11 0,0
17.01.2020 08:00:00 3,8 2,9 1,5 5,6 7,8 10 6 15 8 E 1025,6 23 0 0,0
17.01.2020 07:00:00 2,6 1,6 0,9 5,6 7,8 6 3 17 9 E 1025,7 20 0 0,0
17.01.2020 06:00:00 1,8 0,9 -0,4 5,7 7,8 10 5 15 8 E 1026,0 20 0 0,0
17.01.2020 05:00:00 2,1 0,8 -0,6 5,7 7,8 8 4 10 5 E 1025,8 22 0 0,0
17.01.2020 04:00:00 1,8 0,8 -2,3 5,8 7,7 5 3 9 5 E 1026,1 39 0 0,0
17.01.2020 03:00:00 2,2 0,6 -2,1 5,8 7,8 2 1 14 8 SE 1026,2 28 0 0,0
17.01.2020 02:00:00 0,7 -0,6 - - - 8 4 11 6 ENE 1026,5 20 - 0,0
17.01.2020 01:00:00 2,4 1,2 -1,3 5,9 7,8 4 2 24 13 N 1026,5 22 0 0,0
17.01.2020 00:00:00 0,7 -0,3 -1,8 5,9 7,7 6 3 15 8 ENE 1027,4 12 0 0,0
16.01.2020 23:00:00 0,8 -0,2 -1,6 5,9 7,8 7 4 17 9 NE 1027,7 12 0 0,0
16.01.2020 22:00:00 1,9 1,2 -0,4 5,9 7,7 13 7 17 9 E 1027,9 8 0 0,0
16.01.2020 21:00:00 1,9 0,7 -0,8 5,9 7,8 11 6 14 8 E 1028,5 11 0 0,0
16.01.2020 20:00:00 5,9 3,4 -0,6 5,9 7,8 6 3 9 5 SE 1028,1 28 0 0,0
16.01.2020 19:00:00 5,1 2,1 -0,2 5,8 7,7 5 3 14 7 ENE 1028,1 42 0 0,0
16.01.2020 18:00:00 8,6 3,8 4,1 5,8 7,7 14 8 20 11 SW 1027,5 43 0 0,0
16.01.2020 17:00:00 10,4 3,9 8,8 5,7 7,7 11 6 37 20 S 1027,0 49 56 0,0
16.01.2020 16:00:00 11,9 5,1 13,5 5,6 7,8 15 8 26 14 SSW 1026,7 37 58 0,0
16.01.2020 15:00:00 12,4 5,3 15,1 5,6 7,7 18 10 29 16 S 1026,5 27 60 0,0
16.01.2020 14:00:00 12,3 5,0 15,4 5,5 7,7 19 10 28 15 SSW 1027,0 24 60 0,0
16.01.2020 13:00:00 11,7 4,7 13,4 5,5 7,7 9 5 22 12 ENE 1027,7 38 60 0,0
16.01.2020 12:00:00 9,9 3,8 10,5 5,6 7,7 10 5 18 10 E 1028,9 26 60 0,0
16.01.2020 11:00:00 8,0 3,1 7,3 5,6 7,7 15 8 23 12 E 1029,6 24 60 0,0
16.01.2020 10:00:00 5,7 1,8 1,9 5,6 7,7 14 8 21 11 E 1030,0 23 60 0,0
16.01.2020 09:00:00 2,4 0,3 0,0 5,6 7,7 13 7 21 12 E 1030,4 34 18 0,0
16.01.2020 08:00:00 1,4 -0,4 -0,3 5,7 7,8 16 8 22 12 E 1030,3 30 0 0,0
16.01.2020 07:00:00 3,6 0,8 0,9 5,7 7,7 19 10 28 15 ENE 1029,3 33 0 0,0
16.01.2020 06:00:00 2,1 0,2 0,8 5,7 7,7 18 10 24 13 E 1029,6 30 0 0,0
16.01.2020 05:00:00 4,4 1,6 2,1 5,7 7,7 17 9 23 12 ENE 1029,2 28 0 0,0
16.01.2020 04:00:00 5,3 2,3 4,7 5,7 7,8 16 9 22 12 ENE 1029,3 24 0 0,0
16.01.2020 03:00:00 5,6 3,6 5,1 5,7 7,7 12 7 21 11 E 1029,7 24 0 0,0
16.01.2020 02:00:00 5,7 4,3 5,1 5,7 7,8 15 8 22 12 E 1029,4 15 0 0,0
16.01.2020 01:00:00 5,6 4,6 3,0 5,8 7,8 16 9 22 12 E 1029,6 12 0 0,0
16.01.2020 00:00:00 3,8 2,9 0,0 5,8 7,8 11 6 18 10 E 1029,9 9 0 0,0

tt = temperature
td = dewpoint
tt 5cm = temperature 5cm
tt -20cm = temperature -20cm
tt -100cm = temperature -100cm
ff = wind speed
fx = gusts
dd = wind direction
ppp = reduced air pressure
vv = visibility
sd = sunshine duration
rr = precipitation

Next stations